カタログに戻る

KINEIS-2C

運用中通信SSO
NORAD 62929·PAYLOAD·🇫🇷 France

打ち上げ Feb 8, 2025 から Rocket Lab Launch Complex 1

Loading…

次のパス (今後24時間)

TLE

最新Source: Space-Track

元期: Sep 14, 2026, 09:59 UTC

1 62929U 25028B   26257.41608870  .00001012  00000-0  16333-3 0  9994
2 62929  98.1159 311.8812 0003453   6.7637 353.3617 14.73564250 85751

AllMySatでKINEIS-2Cをリアルタイム追跡

Download on the App Store